CAPE
12 9 11 11 13 13 12 5 3 3 2 3 1 0 0 0 0 0 0 0 0 0 0 0 0 0 0 0 0 0 0 0 0 0 0 0 0 0 0 0 0 0 0 0 0
8 1 1 1 2 7 4 2 4 4 1 2 4 2 0 0 0 0 0 0 0 0 0 0 0 0 0 0 0 0 0 0 0 0 0 0 0 0 0 0 0 0 0 0 0
9 1 3 2 2 5 0 2 2 5 5 6 1 0 0 0 0 0 0 0 0 0 0 0 0 0 0 0 0 0 0 0 0 0 0 0 0 0 0 0 0 0 0 0 0
6 6 1 0 2 6 6 9 7 9 5 0 0 0 0 0 0 0 0 0 0 0 0 0 0 0 0 0 0 0 0 0 0 0 0 0 0 0 0 0 0 0 0 0 0
6 5 5 7 5 5 4 4 7 4 1 0 0 0 0 0 0 0 0 0 0 0 0 0 0 0 0 0 0 0 0 0 0 0 0 0 0 0 0 0 0 0 0 0 0
4 4 6 5 3 1 0 0 3 3 0 0 0 0 0 0 0 0 0 0 0 0 0 0 0 0 0 0 0 0 0 0 0 0 0 0 0 0 0 0 0 0 0 0 0
5 3 3 4 3 2 0 0 1 1 0 0 0 0 0 0 0 0 0 0 0 0 0 0 0 0 0 0 0 0 0 0 0 0 0 0 0 0 0 0 0 0 0 0 0
3 1 1 3 3 5 1 0 0 0 0 0 0 0 0 0 0 0 0 0 0 0 0 0 0 0 0 0 0 0 0 0 0 0 0 0 0 0 0 0 0 0 0 0 0
3 1 2 1 0 0 0 0 0 0 0 0 0 0 0 0 0 0 0 0 0 0 0 0 0 0 0 0 0 0 0 0 0 0 0 0 0 0 0 0 0 0 0 0 0
3 2 2 1 0 0 0 0 0 0 0 0 0 0 0 0 0 0 0 0 0 0 0 0 0 0 0 0 0 0 0 0 3 0 0 0 0 0 0 0 0 0 0 0 0
1 1 2 1 0 0 0 0 0 0 0 0 0 0 0 0 0 0 0 0 0 0 0 0 0 0 0 0 0 0 0 0 0 0 0 0 0 0 0 0 0 0 0 0 0
0 0 1 0 0 0 0 0 1 0 0 0 0 0 0 0 0 0 0 0 0 0 0 0 0 0 0 0 0 0 0 0 0 0 0 0 0 0 0 0 0 0 0 0 0
0 0 1 0 0 0 0 0 0 0 0 0 0 0 0 0 0 0 0 0 0 0 0 0 0 0 0 0 0 0 0 1 0 0 0 0 0 0 0 0 0 0 0 0 0
0 0 3 0 0 0 0 0 0 0 0 0 0 0 0 0 0 0 0 0 0 0 0 0 0 0 0 0 0 0 2 0 0 0 0 0 0 0 0 0 0 0 0 0 0
0 0 1 0 0 0 0 0 0 0 0 0 0 0 0 0 0 0 0 0 0 0 0 0 0 0 0 0 2 0 0 0 0 0 0 0 0 0 0 0 0 0 0 0 0
0 0 0 0 0 0 0 0 0 0 0 0 0 0 0 0 0 0 0 0 0 0 0 0 0 0 0 0 0 0 0 0 0 0 0 0 0 0 0 0 0 0 0 0 0
0 0 0 0 0 0 0 0 0 0 0 0 0 0 0 0 0 0 0 0 0 0 0 0 0 0 0 0 0 0 0 0 0 0 0 0 0 0 0 0 0 0 0 0 0
0 0 0 0 0 0 0 0 0 0 0 0 0 0 0 0 0 0 0 0 0 0 0 0 0 0 0 0 7 3 0 0 1 0 0 0 0 0 0 0 0 0 0 0 0
0 0 0 0 0 0 0 0 0 0 0 0 0 0 0 0 0 0 0 0 0 0 0 0 0 0 0 0 0 0 0 0 0 0 0 0 0 0 0 0 0 0 0 0 0
0 0 0 0 0 0 0 0 0 0 0 0 0 0 0 0 0 0 0 0 0 0 0 0 0 0 0 0 0 0 0 0 0 0 0 0 0 0 0 0 0 0 0 0 0
0 0 0 0 0 0 0 0 0 0 0 0 0 0 0 0 0 0 0 0 0 0 0 0 0 0 0 0 0 0 0 0 0 0 2 0 0 0 0 0 0 0 0 0 0
0 0 0 0 0 0 0 0 0 0 0 0 0 0 0 0 0 0 0 0 0 0 0 0 1 0 0 0 0 0 0 0 0 0 0 0 0 0 0 0 0 0 0 0 0
0 0 0 0 0 0 0 0 0 0 0 0 0 0 0 0 0 0 0 0 0 0 0 0 0 0 0 0 0 0 0 0 0 0 0 0 0 0 0 0 0 0 0 0 0
0 0 0 0 0 0 0 0 0 0 0 0 0 0 0 0 0 0 0 0 0 0 1 0 0 0 0 0 0 0 0 0 0 0 0 0 0 0 0 0 0 0 0 0 0
0 0 0 0 0 0 0 0 0 0 0 0 0 0 0 0 0 0 0 0 0 0 0 0 0 0 0 0 0 0 0 0 0 0 0 0 0 0 0 0 0 0 0 0 0
0 0 0 0 0 0 0 0 0 0 0 0 0 0 0 0 0 0 0 0 0 0 0 0 0 0 0 0 0 0 0 0 0 0 0 0 0 0 0 0 0 0 0 0 0
0 0 0 0 0 0 0 0 0 0 0 0 0 0 0 0 0 0 0 0 0 0 0 0 0 0 0 0 0 0 0 0 0 0 0 0 0 0 0 0 0 0 0 0 0
CIN
0 0 -1 0 0 -1 -1 -1 -2 -1 0 0 0 0 0 0 0 0 0 0 0 0 0 0 0 0 0 0 0 0 0 0 0 0 0 0 0 0 0 0 0 0 0 0 0
0 -1 -1 -1 0 0 -1 -1 -1 -2 -1 0 0 0 0 0 0 0 0 0 0 0 0 0 0 0 0 0 0 0 0 0 0 0 0 0 0 0 0 0 0 0 0 0 0
0 -1 -2 -2 -2 -3 0 -1 -2 0 0 0 0 0 0 0 0 0 0 0 0 0 0 0 0 0 0 0 0 0 0 0 0 0 0 0 0 0 0 0 0 0 0 0 0
0 0 -1 -1 0 0 0 0 0 0 -1 0 0 0 0 0 0 0 0 0 0 0 0 0 0 0 0 0 0 0 0 0 0 0 0 0 0 0 0 0 0 0 0 0 0
0 0 0 0 0 0 0 0 0 0 0 0 0 0 0 0 0 0 0 0 0 0 0 0 0 0 0 0 0 0 0 0 0 0 0 0 0 0 0 0 0 0 0 0 0
0 0 0 0 0 0 -1 0 0 0 0 0 0 0 0 0 0 0 0 0 0 0 0 0 0 0 0 0 0 0 0 0 0 0 0 0 0 0 0 0 0 0 0 0 0
0 0 0 0 0 0 0 0 0 0 0 0 0 0 0 0 0 0 0 0 0 0 0 0 0 0 0 0 0 0 0 0 0 0 0 0 0 0 0 0 0 0 0 0 0
0 0 0 0 0 0 0 0 0 0 0 0 0 0 0 0 0 0 0 0 0 0 0 0 0 0 0 0 0 0 0 0 0 0 0 0 0 0 0 0 0 0 0 0 0
0 0 0 0 0 0 0 0 0 0 0 0 0 0 0 0 0 0 0 0 0 0 0 0 0 0 0 0 0 0 0 0 0 0 0 0 0 0 0 0 0 0 0 0 0
0 0 0 0 0 0 0 0 0 0 0 0 0 0 0 0 0 0 0 0 0 0 0 0 0 0 0 0 0 0 0 0 -4 0 0 0 0 0 0 0 0 0 0 0 0
0 0 0 0 0 0 0 0 0 0 0 0 0 0 0 0 0 0 0 0 0 0 0 0 0 0 0 0 0 0 0 0 0 0 0 0 0 0 0 0 0 0 0 0 0
0 0 0 0 0 0 0 0 0 0 0 0 0 0 0 0 0 0 0 0 0 0 0 0 0 0 0 0 0 0 0 0 -4 0 0 0 0 0 0 0 0 0 0 0 0
0 0 0 0 0 0 0 0 0 0 0 0 0 0 0 0 0 0 0 0 0 0 0 0 0 0 0 0 0 0 -1 -3 0 0 0 0 0 0 0 0 0 0 0 0 0
0 0 0 0 0 0 0 0 0 -1 0 0 0 0 0 0 0 0 0 0 0 0 0 0 0 0 0 0 0 0 -10 0 0 0 0 0 0 0 0 0 0 0 0 0 0
0 0 0 0 0 0 0 0 0 0 0 0 0 0 0 0 0 0 0 0 0 0 0 0 0 0 0 -4 -6 0 0 -2 0 0 0 0 0 0 0 0 0 0 0 0 0
0 0 0 0 0 0 0 0 0 0 0 0 0 0 0 0 0 0 0 0 0 0 0 0 0 0 -2 -7 0 0 0 0 0 0 0 0 0 0 0 0 0 0 0 0 0
0 0 0 0 0 0 0 0 0 0 0 0 0 0 0 0 0 0 0 0 0 0 0 0 0 -1 0 0 0 0 0 0 0 0 0 0 0 0 0 0 0 0 0 0 0
0 0 0 0 0 0 0 0 0 0 0 0 0 0 0 0 0 0 0 0 0 0 0 0 0 0 0 0 -12 -9 0 0 -3 0 0 0 0 0 0 0 0 0 0 0 0
0 0 0 0 0 0 0 0 0 0 0 0 0 0 0 0 0 0 0 0 0 0 0 0 0 0 0 0 0 0 0 0 0 0 0 0 0 0 0 0 0 0 0 0 0
0 0 0 0 0 0 0 0 0 0 0 0 0 0 0 0 0 0 0 0 0 0 0 0 0 0 0 0 0 0 0 0 0 0 0 0 0 0 0 0 0 0 0 0 0
0 0 0 0 0 0 0 0 0 0 0 0 0 0 0 0 0 0 0 0 0 0 0 0 0 0 0 0 0 0 0 -6 0 0 -4 0 0 0 0 0 0 0 0 0 0
0 0 0 0 0 0 0 0 0 0 0 0 0 0 0 0 0 0 0 0 0 0 0 0 -2 0 0 0 0 0 0 0 -8 0 0 0 0 0 0 0 0 0 0 0 0
0 0 0 0 0 0 0 0 0 0 0 0 0 0 0 0 0 0 0 0 0 0 0 0 0 0 0 0 0 0 0 0 0 0 0 0 0 0 0 0 0 0 0 0 0
0 0 0 0 0 0 0 0 0 0 0 0 0 0 0 0 0 0 0 0 0 0 -2 0 0 0 0 0 0 0 0 0 0 0 0 0 0 0 0 0 0 0 0 0 0
0 0 0 0 0 0 0 0 0 0 0 0 0 0 0 0 0 0 0 0 0 0 0 0 0 0 0 0 0 0 0 0 0 0 0 0 0 0 0 0 0 0 0 0 0
0 0 0 0 0 0 0 0 0 0 0 0 0 0 0 0 0 0 0 0 -1 0 0 0 0 0 0 0 0 0 0 0 0 0 0 0 0 0 0 0 0 0 0 0 0
0 0 0 0 0 0 0 0 0 0 0 0 0 0 0 0 0 0 0 0 0 0 0 0 0 0 0 0 0 0 0 0 0 0 0 0 0 0 0 0 0 0 0 0 0
Wind_Speed
25 32 35 35 36 34 36 36 35 37 35 33 31 28 30 26 27 26 24 20 19 25 26 27 28 30 28 25 24 24 32 40 41 44 50 43 46 37 39 41 39 34 36 35 41
37 37 37 36 36 35 33 35 36 38 35 33 28 27 26 27 28 26 18 20 23 25 26 29 30 31 30 28 27 27 36 40 39 42 48 52 46 49 49 52 54 47 39 39 46
39 37 35 36 38 39 38 39 38 40 37 34 28 24 24 25 27 21 20 22 23 24 26 26 27 31 32 30 30 31 39 42 42 47 49 54 55 46 48 56 53 53 49 49 49
13 13 14 23 39 41 42 43 39 42 41 35 28 24 22 23 32 20 19 21 21 23 27 30 32 34 34 34 33 42 40 43 46 45 48 52 56 57 51 55 50 53 50 49 51
40 42 43 43 43 42 43 44 44 41 41 30 26 23 22 27 25 17 18 19 20 25 30 33 34 34 35 36 41 44 45 41 44 47 49 50 54 54 57 53 49 50 49 46 45
41 43 44 45 45 41 27 44 46 40 33 27 23 22 24 32 20 17 17 21 23 26 30 32 32 32 37 37 43 43 45 44 45 47 47 50 54 52 57 54 51 47 43 42 41
38 43 45 46 48 49 41 32 46 39 29 23 22 22 24 24 20 15 19 21 22 25 30 30 30 33 37 44 37 41 52 49 46 43 43 44 52 50 46 46 45 41 38 42 39
37 40 46 47 48 49 46 29 44 32 23 23 23 21 23 20 19 19 20 20 22 21 25 26 28 31 36 37 41 46 44 49 44 44 43 45 55 44 40 46 44 44 43 41 41
39 40 45 48 50 50 49 44 37 24 22 23 23 21 24 19 21 24 22 23 26 25 26 26 29 34 36 43 47 40 53 52 54 48 48 45 53 48 49 48 50 48 48 48 46
39 43 46 48 49 48 48 43 33 25 30 21 21 24 21 22 23 24 21 22 27 29 31 31 31 39 37 42 56 57 57 54 55 49 48 46 44 42 47 46 48 46 42 41 43
42 45 47 47 49 47 43 34 38 29 37 29 25 23 20 24 22 23 24 27 26 30 44 36 42 46 43 39 43 49 51 52 49 45 44 43 42 44 48 44 43 44 43 40 27
43 47 47 49 49 40 34 35 33 28 35 27 23 19 19 24 31 27 25 34 36 46 40 42 46 36 41 41 46 45 48 48 43 42 42 40 37 42 29 41 40 35 26 19 15
42 47 48 50 43 34 34 35 32 29 32 28 20 23 25 28 35 31 30 34 39 42 42 44 42 39 41 46 45 45 46 44 46 44 38 36 32 41 42 40 36 27 12 14 18
43 48 47 50 30 35 32 34 32 28 34 25 25 25 27 30 34 33 29 33 37 44 44 38 33 42 42 41 40 47 40 39 42 44 43 31 29 37 34 29 23 17 14 18 24
42 47 48 38 31 33 33 32 30 28 46 24 27 25 29 36 39 37 29 32 42 43 40 42 43 44 42 39 36 42 36 38 36 37 32 28 20 27 30 23 22 21 22 25 31
43 45 47 33 32 29 34 32 29 37 37 31 30 36 40 44 36 31 35 37 39 39 34 35 36 32 36 33 34 35 39 38 28 27 27 23 29 28 30 27 23 25 27 33 38
42 46 39 32 32 32 34 32 41 36 31 35 40 42 50 43 39 39 47 48 48 51 50 49 34 34 33 40 34 37 43 42 38 33 25 26 25 22 25 28 26 29 34 39 41
42 46 34 29 31 33 33 36 44 33 38 38 42 49 41 42 41 47 46 50 36 39 48 50 54 41 41 39 40 35 31 34 39 32 27 23 16 20 26 25 29 36 39 42 44
40 39 31 30 29 32 34 43 37 37 39 45 48 44 40 38 46 45 47 39 35 39 48 48 44 44 35 36 26 32 30 22 24 22 20 17 20 31 24 34 33 37 42 43 45
37 36 30 30 31 30 34 37 33 37 39 40 46 39 46 48 46 47 43 32 34 36 38 39 55 36 38 38 21 28 22 27 22 23 22 17 20 19 28 33 36 41 41 43 44
35 39 30 32 31 33 38 35 40 35 38 38 39 41 42 44 41 47 36 34 33 40 39 40 34 38 40 36 32 26 24 18 18 14 17 20 14 33 25 35 38 39 41 43 44
33 41 30 30 38 33 39 36 36 36 34 34 32 35 37 39 43 40 35 31 38 41 44 34 35 42 39 30 21 15 19 15 18 17 13 15 11 24 32 36 36 37 37 42 44
36 36 28 28 40 40 37 37 35 36 34 33 33 32 33 38 44 36 34 32 37 37 39 35 33 47 43 29 24 21 19 17 18 15 10 15 10 30 32 34 36 33 36 42 46
33 40 34 31 30 37 40 38 38 34 34 30 32 32 36 38 32 38 38 35 39 38 29 27 30 32 36 29 24 20 16 15 14 13 12 6 19 26 29 31 32 32 35 39 45
29 34 31 39 37 33 34 36 40 39 29 29 33 33 35 42 43 39 35 40 36 26 28 29 31 29 25 20 18 16 13 11 11 6 9 9 19 25 28 30 28 26 32 37 42
29 31 29 34 32 33 33 36 39 37 32 35 33 36 34 39 38 44 41 39 36 27 27 26 29 31 30 22 18 17 13 9 7 9 12 8 11 26 27 25 26 26 30 36 25
24 24 28 33 32 34 36 36 37 35 30 27 32 36 35 35 30 30 30 30 23 22 25 25 27 30 27 25 22 19 19 17 14 13 16 23 26 27 30 29 26 26 29 32 20
Wind_Direction
336 350 1 355 3 11 359 0 1 353 358 360 1 5 1 6 2 360 357 8 9 359 356 352 349 345 344 340 336 329 317 311 310 308 306 311 308 307 307 297 296 292 290 289 289
3 360 12 10 7 9 11 3 358 353 356 356 2 1 3 2 358 2 21 14 4 0 356 350 346 344 341 337 333 323 314 311 312 310 307 305 306 304 301 294 289 291 292 293 290
8 352 342 342 345 356 359 354 353 347 352 354 357 2 3 3 359 7 16 10 6 3 357 352 347 343 336 335 330 323 309 312 309 308 307 305 302 304 299 291 291 291 293 292 291
1 28 25 330 344 345 346 346 354 345 345 352 358 2 6 7 351 3 13 10 10 6 356 351 343 339 334 331 329 319 316 313 312 311 308 304 302 297 295 292 295 293 294 294 290
15 9 360 354 345 336 335 344 343 348 345 358 1 7 5 356 354 15 13 12 7 359 353 347 342 339 333 329 326 320 318 318 317 314 309 306 301 298 294 297 297 295 293 293 292
7 360 357 351 342 330 314 326 336 349 355 1 9 9 1 347 11 16 14 3 359 355 350 348 342 338 330 328 325 326 322 319 318 314 310 306 300 300 299 299 294 292 290 293 295
16 3 353 347 344 341 321 311 337 351 0 10 8 5 356 356 9 23 6 358 356 352 347 347 343 340 335 328 327 325 320 318 318 318 313 313 303 302 305 304 297 292 292 294 296
15 10 354 344 337 339 326 311 341 358 8 8 5 5 360 9 18 7 2 356 352 350 346 345 343 336 332 330 327 325 324 323 327 325 323 320 310 312 309 306 302 298 297 298 297
9 7 358 347 341 336 336 326 337 11 14 8 9 10 3 17 12 6 4 355 350 347 346 344 343 336 336 331 329 330 323 323 323 325 322 317 309 311 306 302 298 297 294 295 295
8 1 356 352 349 333 338 323 8 17 7 12 14 3 8 4 2 359 0 356 351 348 346 345 341 336 335 334 327 328 326 324 323 328 326 321 315 316 310 304 299 298 300 297 296
2 356 353 352 350 347 355 7 7 6 359 0 355 360 6 360 359 2 2 354 352 347 339 342 336 332 332 333 328 327 326 327 326 330 328 324 319 317 310 305 301 297 297 299 308
1 355 350 348 348 359 8 11 9 2 356 3 3 10 9 7 356 357 0 350 344 337 340 339 333 336 334 333 331 330 327 328 332 334 330 326 321 321 320 307 301 300 311 322 332
1 355 349 343 349 8 10 8 3 3 355 359 10 5 3 360 351 353 353 346 341 339 340 336 332 338 339 336 335 335 332 334 335 338 337 333 333 320 291 303 290 307 321 328 327
357 352 352 346 8 3 5 3 3 4 353 2 3 2 358 356 350 350 352 350 344 340 341 340 346 338 337 337 337 336 339 338 337 341 340 342 337 333 311 325 359 16 353 330 316
356 350 349 359 358 1 359 359 3 2 344 2 356 1 355 350 344 348 359 351 340 335 338 335 337 337 335 336 340 337 342 336 337 336 343 351 358 345 320 339 348 344 335 326 319
352 351 349 0 358 360 355 355 359 350 345 350 353 350 345 342 345 349 348 348 339 340 337 334 339 340 336 340 343 343 343 340 346 351 351 356 353 342 329 333 341 330 323 311 314
352 348 352 357 355 354 355 358 349 348 354 348 343 342 339 342 344 348 344 344 343 343 345 343 354 353 356 349 350 347 346 347 352 354 350 353 354 359 339 341 342 324 306 312 325
349 348 354 358 355 355 357 353 343 347 343 343 341 337 342 348 346 344 345 343 354 351 343 347 342 357 349 341 338 345 349 348 347 350 345 354 12 1 340 349 337 315 309 318 321
348 353 356 357 359 356 354 345 344 345 343 340 340 342 344 346 344 346 346 347 354 359 350 346 344 338 343 347 342 350 351 356 350 353 358 5 354 331 347 328 306 308 314 309 317
348 351 355 357 357 356 350 344 345 345 343 343 339 342 339 340 344 347 348 351 352 356 356 346 338 353 354 350 2 356 358 357 2 359 357 6 0 8 289 304 304 307 309 312 323
348 346 352 353 353 350 344 343 341 344 345 343 340 338 339 341 344 343 345 346 354 349 351 346 346 344 350 356 346 347 353 1 359 3 360 360 5 339 286 307 305 306 310 321 326
343 338 347 350 343 345 340 341 342 341 344 342 343 342 342 344 342 344 344 350 348 348 348 353 346 342 343 345 353 8 1 6 9 9 360 352 335 357 334 305 308 305 310 325 341
336 336 347 350 339 339 339 338 340 343 344 345 343 343 346 343 343 344 342 350 344 349 345 348 351 344 352 10 12 9 13 13 7 5 1 351 352 288 297 304 309 306 312 331 338
335 333 338 342 344 340 339 340 341 345 342 344 342 344 342 341 343 341 338 347 346 343 348 360 351 349 347 349 357 355 356 2 8 360 350 322 264 285 297 303 306 307 315 323 348
334 330 336 332 335 338 343 340 339 342 347 349 346 343 343 341 339 338 343 339 348 357 1 1 353 354 351 349 356 353 353 357 11 7 4 252 262 283 296 300 299 298 313 323 331
327 331 335 332 334 334 337 339 338 341 342 341 338 341 341 338 337 334 339 341 344 353 358 358 356 357 355 10 11 7 14 20 29 31 26 38 256 293 298 296 299 303 315 326 318
326 330 328 328 331 332 333 335 338 340 341 341 340 339 338 338 341 338 334 331 329 338 354 360 1 0 1 7 9 22 24 31 35 32 15 360 293 297 306 307 302 306 316 321 317